GW5133 Weather Reports


time (UTC)temp
C
wind
direction
speed
KPH
gust
KPH
rain 1hr
cm
rain 24hr
cm
rain mn
cm
humidity
%
barometer
mb
20260504004509 8 123 1.6 1.6 0.00 0.00 0.00 59 1017.2
20260504004006 8 136 0.0 0.0 0.00 0.00 0.00 57 1017.2
20260504003502 8 136 0.0 0.0 0.00 0.00 0.00 57 1017.2
20260504002959 8 136 0.0 0.0 0.00 0.00 0.00 57 1017.2
20260504002456 8 136 0.0 1.6 0.00 0.00 0.00 56 1017.0
20260504001953 8 136 0.0 0.0 0.00 0.00 0.00 54 1017.1
20260504001451 9 136 0.0 0.0 0.00 0.00 0.00 52 1017.2
20260504000947 9 136 0.0 0.0 0.00 0.00 0.00 52 1017.4
20260504000444 10 206 1.6 1.6 0.00 0.00 0.00 50 1017.3
20260503235942 10 231 1.6 3.2 0.00 0.00 0.00 48 1017.3
20260503235439 10 239 1.6 3.2 0.00 0.00 0.00 45 1017.4
20260503234936 10 245 3.2 4.8 0.00 0.00 0.00 43 1017.2
20260503234434 10 269 4.8 4.8 0.00 0.00 0.00 42 1017.3
20260503233932 11 249 0.0 4.8 0.00 0.00 0.00 46 1017.3
20260503233428 11 244 3.2 3.2 0.00 0.00 0.00 43 1017.2
20260503232925 11 228 4.8 4.8 0.00 0.00 0.00 41 1017.3
20260503232422 11 259 4.8 4.8 0.00 0.00 0.00 39 1017.6
20260503231920 11 261 4.8 6.4 0.00 0.00 0.00 38 1017.6
20260503231417 11 241 6.4 6.4 0.00 0.00 0.00 39 1017.3
20260503230913 11 262 1.6 3.2 0.00 0.00 0.00 42 1017.4
20260503230410 12 237 3.2 6.4 0.00 0.00 0.00 41 1017.3
20260503225908 12 218 3.2 11.3 0.00 0.00 0.00 37 1017.6
20260503225403 12 281 3.2 4.8 0.00 0.00 0.00 39 1017.7
20260503224900 12 211 4.8 4.8 0.00 0.00 0.00 41 1017.6
20260503224357 12 243 3.2 3.2 0.00 0.00 0.00 38 1017.3
20260503223854 12 272 4.8 4.8 0.00 0.00 0.00 40 1017.6
20260503223352 12 262 6.4 9.7 0.00 0.00 0.00 36 1017.6
20260503222847 12 222 6.4 11.3 0.00 0.00 0.00 36 1017.6
20260503222347 12 342 3.2 9.7 0.00 0.00 0.00 39 1017.4
20260503221844 12 233 6.4 9.7 0.00 0.00 0.00 37 1017.6
20260503221343 12 255 3.2 4.8 0.00 0.00 0.00 40 1017.6
20260503220838 12 242 6.4 9.7 0.00 0.00 0.00 37 1017.7
20260503220335 12 228 4.8 6.4 0.00 0.00 0.00 36 1017.4
20260503215832 12 235 4.8 11.3 0.00 0.00 0.00 36 1017.6
20260503215329 12 234 3.2 11.3 0.00 0.00 0.00 34 1017.2
20260503214827 12 285 1.6 4.8 0.00 0.00 0.00 36 1017.7
20260503214324 12 237 9.7 11.3 0.00 0.00 0.00 36 1017.4
20260503213821 13 35 3.2 3.2 0.00 0.00 0.00 35 1017.4
20260503213319 12 245 3.2 6.4 0.00 0.00 0.00 37 1017.2
20260503212815 13 192 8.0 9.7 0.00 0.00 0.00 35 1017.3
20260503212313 13 232 4.8 9.7 0.00 0.00 0.00 36 1017.4
20260503211810 13 207 6.4 9.7 0.00 0.00 0.00 37 1017.6
20260503211307 13 234 4.8 6.4 0.00 0.00 0.00 36 1017.6
20260503210802 13 277 3.2 6.4 0.00 0.00 0.00 35 1017.6
20260503210259 13 245 3.2 9.7 0.00 0.00 0.00 37 1017.6
20260503205753 13 253 3.2 4.8 0.00 0.00 0.00 32 1017.9
20260503205250 13 221 3.2 9.7 0.00 0.00 0.00 34 1017.8
20260503204747 13 231 8.0 11.3 0.00 0.00 0.00 37 1017.8
20260503204245 13 231 3.2 6.4 0.00 0.00 0.00 36 1017.8
20260503203742 13 251 6.4 12.9 0.00 0.00 0.00 35 1018.0
20260503203239 13 243 3.2 12.9 0.00 0.00 0.00 33 1018.1
20260503202736 13 253 8.0 12.9 0.00 0.00 0.00 35 1018.2
20260503202234 14 96 1.6 4.8 0.00 0.00 0.00 35 1018.1
20260503201732 14 260 4.8 9.7 0.00 0.00 0.00 32 1018.1
20260503201229 13 282 3.2 6.4 0.00 0.00 0.00 39 1018.2
20260503200725 13 286 3.2 14.5 0.00 0.00 0.00 37 1018.2
20260503200222 14 246 3.2 6.4 0.00 0.00 0.00 34 1018.4
20260503195718 13 346 1.6 12.9 0.00 0.00 0.00 35 1018.5
20260503195215 13 310 3.2 12.9 0.00 0.00 0.00 36 1018.5
20260503194713 13 206 9.7 12.9 0.00 0.00 0.00 36 1018.4
20260503194209 13 270 4.8 9.7 0.00 0.00 0.00 41 1018.8
20260503193705 13 255 6.4 9.7 0.00 0.00 0.00 35 1018.8
20260503193201 13 290 1.6 4.8 0.00 0.00 0.00 39 1018.9
20260503192656 12 164 0.0 11.3 0.00 0.00 0.00 40 1018.9
20260503192152 13 270 3.2 6.4 0.00 0.00 0.00 40 1019.2
20260503191649 13 222 4.8 6.4 0.00 0.00 0.00 39 1019.1
20260503191146 13 263 3.2 4.8 0.00 0.00 0.00 40 1019.1
20260503190643 12 202 6.4 9.7 0.00 0.00 0.00 40 1019.4
20260503190140 12 223 4.8 9.7 0.00 0.00 0.00 38 1019.6
20260503185636 12 260 11.3 12.9 0.00 0.00 0.00 36 1019.4
20260503185131 13 306 4.8 6.4 0.00 0.00 0.00 37 1019.2
20260503184627 13 251 3.2 6.4 0.00 0.00 0.00 35 1019.6
20260503184124 12 49 1.6 6.4 0.00 0.00 0.00 42 1019.7
20260503183620 12 184 1.6 4.8 0.00 0.00 0.00 42 1019.7
20260503183118 12 154 8.0 11.3 0.00 0.00 0.00 38 1019.6
20260503182616 13 244 4.8 9.7 0.00 0.00 0.00 40 1019.6
20260503182114 12 72 3.2 4.8 0.00 0.00 0.00 41 1019.8
20260503181610 12 218 3.2 4.8 0.00 0.00 0.00 39 1019.7
20260503181107 12 250 1.6 4.8 0.00 0.00 0.00 38 1019.5
20260503180604 11 239 6.4 6.4 0.00 0.00 0.00 45 1019.8
20260503175559 12 246 4.8 9.7 0.00 0.00 0.00 44 1019.8
20260503175056 11 183 3.2 6.4 0.00 0.00 0.00 47 1020.0
20260503174553 12 212 6.4 12.9 0.00 0.00 0.00 41 1020.1
20260503174049 12 256 1.6 6.4 0.00 0.00 0.00 43 1020.2
20260503173544 11 304 4.8 12.9 0.00 0.00 0.00 47 1020.1
20260503173041 11 233 4.8 11.3 0.00 0.00 0.00 48 1020.1
20260503172538 11 217 4.8 6.4 0.00 0.00 0.00 55 1020.0
20260503172035 11 224 8.0 11.3 0.00 0.00 0.00 43 1020.2
20260503171532 11 239 8.0 12.9 0.00 0.00 0.00 45 1020.2
20260503171029 11 195 1.6 3.2 0.00 0.00 0.00 44 1020.2
20260503170525 11 296 3.2 4.8 0.00 0.00 0.00 49 1020.1
20260503150918 6 248 1.6 6.4 0.00 0.00 0.00 54 1021.5
20260503150414 7 235 3.2 4.8 0.00 0.00 0.00 51 1021.3
20260503131308 5 291 1.6 4.8 0.00 0.00 0.00 68 1021.1
20260503130805 5 233 3.2 3.2 0.00 0.00 0.00 76 1020.9
20260503130302 5 268 4.8 4.8 0.00 0.00 0.00 76 1021.1
20260503110656 -1 231 0.0 0.0 0.00 0.00 0.00 99 1020.1
20260503110153 -1 231 0.0 0.0 0.00 0.00 0.00 99 1019.9
20260503100120 -2 231 0.0 0.0 0.00 0.00 0.00 99 1019.2
20260503081509 -1 231 0.0 0.0 0.00 0.00 0.00 99 1018.8
20260503081007 -1 231 0.0 0.0 0.00 0.00 0.00 99 1018.7
20260503080502 -1 231 0.0 0.0 0.00 0.00 0.00 99 1018.6
20260503072933 0 232 1.6 1.6 0.00 0.00 0.00 99 1018.4
20260503072430 0 232 1.6 1.6 0.00 0.00 0.00 98 1018.4
20260503071927 0 232 0.0 0.0 0.00 0.00 0.00 98 1018.4
20260503071424 0 232 0.0 0.0 0.00 0.00 0.00 98 1018.2
20260503070920 0 232 0.0 0.0 0.00 0.00 0.00 97 1018.2
20260503070418 0 232 0.0 0.0 0.00 0.00 0.00 97 1018.3
20260503054831 1 232 0.0 0.0 0.00 0.00 0.00 90 1018.1
20260503054327 2 232 0.0 0.0 0.00 0.00 0.00 89 1018.1
20260503053825 2 232 0.0 1.6 0.00 0.00 0.00 89 1018.1
20260503053323 2 232 0.0 0.0 0.00 0.00 0.00 89 1018.1
20260503052819 2 232 0.0 0.0 0.00 0.00 0.00 89 1018.1
20260503052316 2 232 0.0 1.6 0.00 0.00 0.00 89 1018.2
20260503051812 1 232 0.0 0.0 0.00 0.00 0.00 90 1018.2
20260503051309 2 232 0.0 1.6 0.00 0.00 0.00 90 1018.1
20260503050806 2 218 0.0 0.0 0.00 0.00 0.00 90 1018.1
20260503050302 1 218 0.0 0.0 0.00 0.00 0.00 91 1018.1
20260503045800 1 216 0.0 0.0 0.00 0.00 0.00 91 1018.1
20260503045257 1 214 0.0 0.0 0.00 0.00 0.00 92 1018.0
20260503044753 1 214 0.0 1.6 0.00 0.00 0.00 91 1018.1
20260503044250 1 214 0.0 0.0 0.00 0.00 0.00 91 1018.1
20260503043748 1 214 0.0 0.0 0.00 0.00 0.00 91 1018.1
20260503043245 1 213 0.0 1.6 0.00 0.00 0.00 91 1018.0
20260503042740 1 169 0.0 0.0 0.00 0.00 0.00 90 1018.1
20260503042237 1 169 0.0 0.0 0.00 0.00 0.00 89 1018.1
20260503041733 1 169 0.0 0.0 0.00 0.00 0.00 87 1018.2
20260503041231 1 169 0.0 0.0 0.00 0.00 0.00 87 1018.1
20260503040729 1 168 0.0 0.0 0.00 0.00 0.00 86 1018.2
20260503040227 2 168 0.0 0.0 0.00 0.00 0.00 84 1018.0
20260503035723 2 168 0.0 0.0 0.00 0.00 0.00 83 1017.9
20260503035221 2 169 0.0 0.0 0.00 0.00 0.00 82 1018.3
20260503034718 2 260 0.0 1.6 0.00 0.00 0.00 81 1018.1
20260503034215 3 232 0.0 0.0 0.00 0.00 0.00 80 1018.2
20260503033712 3 283 1.6 3.2 0.00 0.00 0.00 79 1018.1
20260503033210 3 235 1.6 1.6 0.00 0.00 0.00 79 1018.2
20260503032708 3 111 0.0 0.0 0.00 0.00 0.00 79 1018.1
20260503032206 3 255 0.0 1.6 0.00 0.00 0.00 78 1018.2
20260503031703 3 236 0.0 1.6 0.00 0.00 0.00 78 1017.8
20260503031201 3 255 1.6 3.2 0.00 0.00 0.00 78 1018.2
20260503030656 3 269 0.0 1.6 0.00 0.00 0.00 76 1018.1
20260503030153 3 256 0.0 0.0 0.00 0.00 0.00 76 1018.0
20260503025651 3 268 0.0 1.6 0.00 0.00 0.00 75 1018.3
20260503025148 3 226 0.0 1.6 0.00 0.00 0.00 75 1018.3
20260503024644 3 287 0.0 1.6 0.00 0.00 0.00 74 1018.2
20260503024142 4 262 0.0 1.6 0.00 0.00 0.00 72 1018.2
20260503023638 4 284 0.0 1.6 0.00 0.00 0.00 71 1018.0
20260503023136 4 309 0.0 3.2 0.00 0.00 0.00 72 1018.0
20260503022631 4 3 1.6 1.6 0.00 0.00 0.00 70 1017.9
20260503022126 5 278 0.0 1.6 0.00 0.00 0.00 69 1017.9
20260503021623 5 303 0.0 1.6 0.00 0.00 0.00 69 1017.8
20260503021120 5 102 1.6 3.2 0.00 0.00 0.00 68 1017.9
20260503020617 5 309 1.6 4.8 0.00 0.00 0.00 68 1017.8
20260503020114 5 305 3.2 9.7 0.00 0.00 0.00 68 1017.9
20260503015611 4 310 1.6 4.8 0.00 0.00 0.00 70 1017.9
20260503015108 4 16 1.6 1.6 0.00 0.00 0.00 68 1017.6
20260503014604 4 333 0.0 1.6 0.00 0.00 0.00 68 1017.6
20260503014102 5 266 1.6 3.2 0.00 0.00 0.00 66 1017.7
20260503013558 5 303 0.0 1.6 0.00 0.00 0.00 66 1017.6
20260503013056 5 321 0.0 0.0 0.00 0.00 0.00 66 1017.3
20260503012554 5 304 0.0 1.6 0.00 0.00 0.00 64 1017.3
20260503012050 5 253 0.0 3.2 0.00 0.00 0.00 63 1017.3
20260503011546 5 272 0.0 1.6 0.00 0.00 0.00 63 1017.4
20260503011044 5 269 1.6 3.2 0.00 0.00 0.00 63 1017.3
20260503010540 5 301 1.6 3.2 0.00 0.00 0.00 62 1017.1
20260503010038 6 53 1.6 3.2 0.00 0.00 0.00 62 1017.1
20260503005534 6 107 0.0 3.2 0.00 0.00 0.00 61 1017.0
20260503005032 6 280 0.0 1.6 0.00 0.00 0.00 61 1016.9